#timestamp,LO_Frequency,Hit,StdDev 
1522389615.3,286047001.7,N
1522389635.1,286047002.8,N
1522389655.9,286047002.2,N
1522389675.7,286047001.0,N
1522389695.6,286047000.7,N
1522389715.4,286047000.2,N
1522389735.2,286047003.4,N
1522389755.1,286047003.5,N
1522389756.0,286047003.5,N
1522389775.8,286047003.1,N
1522389795.7,286047003.2,N
1522389815.5,286047004.1,N
1522389835.3,286047001.4,N
1522389855.2,286047001.4,N
1522389875.9,286046999.8,N
1522389895.7,286047000.4,N
1522389915.6,286047002.7,N
1522389935.4,286046999.9,N
1522389955.3,286046999.7,N
1522389975.1,286047000.3,N
1522389995.8,286047001.0,N
1522390015.7,286046999.4,N
1522390035.5,286046998.8,N
1522390055.3,286046996.6,N
1522390075.2,286046995.1,N
1522390095.0,286046997.9,N
1522390095.9,286046997.9,N
1522390115.8,286046999.1,N
1522390135.6,286046996.5,N
1522390155.4,286046996.6,N
1522390175.3,286046997.5,N
1522390195.1,286046996.8,N
1522390215.9,286046995.0,N
1522390235.7,286046997.8,N
1522390255.5,286046995.1,N
1522390275.4,286046997.4,N
1522390295.2,286046996.5,N
1522390315.1,286046999.1,N
1522390316.0,286046999.1,N
1522390335.8,286046996.7,N
1522390355.6,286046997.4,N
1522390375.5,286046997.8,N
1522390395.3,286046997.4,N
1522390415.1,286046995.6,N
1522390435.9,286046997.7,N
1522390455.7,286046995.9,N
1522390475.6,286046996.4,N
1522390495.4,286046995.6,N
1522390515.2,286046996.1,N
1522390535.1,286046998.0,N
1522390536.0,286046998.0,N
1522390555.8,286046997.0,N
1522390575.6,286046997.7,N
1522390595.5,286046995.4,Y
1522390615.3,286046999.4,P
1522390635.2,286046998.1,N
1522390655.9,286046997.0,P
1522390675.7,286046997.0,Y
1522390695.6,286046999.2,P
1522390715.4,286046999.5,N
1522390735.3,286046998.7,N
1522390755.1,286046999.5,N
1522390756.0,286046999.5,N
1522390775.8,286046998.5,N
1522390795.7,286046998.5,N
1522390815.5,286046996.8,Y
1522390835.4,286046996.6,P
1522390855.2,286046998.0,N
1522390875.0,286046995.3,P
1522390875.9,286046995.3,Y
1522390895.8,286046998.3,P
1522390915.6,286046996.7,P
1522390935.4,286046998.3,N
1522390955.3,286046998.7,N
1522390975.1,286047000.7,N
1522390995.9,286046998.6,N
1522391015.7,286047000.6,N
1522391035.5,286046998.7,N
1522391055.4,286047001.2,N
1522391075.2,286046999.2,N
1522391095.0,286046999.0,N
1522391095.9,286046999.0,N
1522391115.8,286047001.2,N
1522391135.6,286046998.8,N
1522391155.5,286046997.2,N
1522391175.3,286046996.6,N
1522391195.1,286046996.5,N
1522391215.9,286046998.3,N
1522391235.7,286046998.6,N
1522391255.5,286047001.2,N
1522391275.4,286046998.3,N
1522391295.2,286047001.2,N
1522391315.1,286046999.3,N
1522391316.0,286046999.3,N
1522391335.8,286046999.1,N
1522391355.6,286047004.4,Y
1522391375.5,286047013.3,P
1522391395.3,286047021.0,N
1522391415.2,286047019.4,N
1522391435.9,286047018.4,N
1522391455.7,286047014.1,N
1522391475.6,286047013.9,N
1522391495.4,286047012.1,N
1522391515.2,286047011.1,N
1522391535.1,286047011.5,N
1522391536.0,286047011.5,N
1522391555.8,286047010.4,N
1522391575.7,286047007.1,N
1522391595.5,286047003.6,N
1522391615.3,286047002.4,N
1522391635.2,286046998.1,N
1522391655.0,286046997.0,N
1522391655.9,286046997.0,N
1522391675.8,286046996.8,N
1522391695.6,286046998.9,N
1522391715.4,286046999.6,N
1522391735.3,286046997.5,N
1522391755.1,286046996.8,N
1522391756.0,286046996.8,N
1522391775.8,286046995.0,N
1522391795.7,286046996.9,N
1522391815.5,286046997.1,N
1522391835.3,286046997.7,N
1522391855.2,286046999.6,N
1522391875.0,286046997.1,N
1522391875.9,286046997.1,N
1522391895.8,286046997.0,N
1522391915.6,286046998.4,N
1522391935.4,286047001.2,N
1522391955.3,286047000.5,N
1522391975.1,286047001.2,N
1522391995.8,286046998.2,N
1522392015.7,286047000.3,N
1522392035.5,286046998.2,N
1522392055.4,286047002.3,N
1522392075.2,286047001.4,N
1522392095.0,286046999.7,N
1522392095.9,286046999.7,N
1522392115.8,286047000.9,N
1522392135.6,286046998.6,N
1522392155.5,286047000.6,N
1522392175.3,286046999.7,N
1522392195.1,286047000.6,N
1522392215.9,286047000.8,N
1522392235.7,286046999.9,N
1522392255.5,286047000.6,N
1522392275.4,286047001.1,N
1522392295.2,286047000.4,N
1522392315.1,286047000.9,N
1522392316.0,286047000.9,N
1522392335.8,286047000.6,N
1522392355.6,286047000.9,N
1522392375.5,286046998.2,N
1522392395.3,286046998.8,N
1522392415.1,286046998.7,N
1522392435.9,286046998.6,N
1522392455.7,286046999.5,N
1522392475.6,286046998.2,N
1522392495.4,286046998.1,N
1522392515.2,286047001.0,N
1522392535.1,286047000.8,N
1522392536.0,286047000.8,N
1522392555.8,286047001.1,N
1522392575.6,286047002.3,N
1522392595.5,286047000.4,N
1522392615.3,286047000.3,N
1522392635.2,286047000.9,N
1522392655.9,286047000.3,N
1522392675.7,286047000.6,N
1522392695.6,286047001.5,N
1522392715.4,286047002.8,N
1522392735.2,286046999.8,N
1522392755.1,286047004.0,Y
1522392756.0,286047004.0,P
1522392775.8,286047001.6,N
1522392795.7,286047002.2,N
1522392815.5,286047000.5,N
1522392835.3,286046999.7,N
1522392855.2,286047002.4,N
1522392875.0,286047002.8,N
1522392875.9,286047002.8,N
1522392895.7,286047000.0,N
1522392915.6,286047002.2,N
1522392935.4,286047004.3,Y
1522392955.3,286047000.9,P
1522392975.1,286046998.8,P
1522392976.0,286046998.8,N
1522392995.8,286046998.6,N
1522393015.7,286046999.0,N
1522393035.5,286046998.4,N
1522393055.3,286047000.7,N
1522393075.2,286047000.9,N
1522393095.0,286047000.5,N
1522393095.9,286047000.5,N
1522393115.8,286047000.4,N
1522393135.6,286046998.1,N
1522393155.4,286046998.2,N
1522393175.3,286047001.2,N
1522393195.1,286047002.7,N
